Date String (YYYY-MM-DD hh:mm:ss) UTC,Instrument flags,Ambient pressure (hPa),Sample flow (lpm),Bypass flow (lpm),Sample temperature (°C),Ambient temperature (°C),ASC tube jacket temperature (°C),LED temperature (°C),Box temperature (°C),Sample RH (%),Span deviation,Mass concentration (μg/m³),Mass concentration (μg/m³),Mass concentration (μg/m³)
DateTimeUTC,F1_M11,P_M11,Q1_M11,Q2_M11,T1_M11,T2_M11,T3_M11,T4_M11,T5_M11,U1_M11,ZSPAN_M11,X0_M11,X2_M11,X1_M11
2022-06-15 19:00:00,,0823.4,4.99,0.00,29.2,27.8,00.0,38.1,31.1,07.4,0000.0,0003.38,0002.20,0001.77
2022-06-15 19:01:00,,0823.5,5.01,0.00,29.2,27.9,00.0,38.1,31.2,07.4,0000.0,0003.29,0002.16,0001.76
2022-06-15 19:02:00,,0823.5,5.01,0.00,29.2,28.1,00.0,38.1,31.2,07.4,0000.0,0003.25,0002.15,0001.76
2022-06-15 19:03:00,,0823.4,5.00,0.00,29.3,28.2,00.0,38.1,31.2,07.3,0000.0,0003.35,0002.15,0001.75
2022-06-15 19:04:00,,0823.6,4.99,0.00,29.3,28.3,00.0,38.1,31.3,07.3,0000.0,0003.27,0002.11,0001.74
2022-06-15 19:05:00,,0823.5,5.00,0.00,29.3,28.4,00.0,38.1,31.3,07.3,0000.0,0003.02,0002.05,0001.72
2022-06-15 19:06:00,,0823.5,5.00,0.00,29.4,28.5,00.0,38.1,31.4,07.3,0000.0,0002.90,0002.00,0001.71
2022-06-15 19:07:00,,0823.5,4.99,0.00,29.4,28.4,00.0,38.1,31.3,07.2,0000.0,0003.14,0002.01,0001.68
2022-06-15 19:08:00,,0823.6,5.00,0.00,29.4,27.6,00.0,38.1,31.1,07.2,0000.0,0003.31,0002.03,0001.67
2022-06-15 19:09:00,,0823.5,4.99,0.00,29.3,27.1,00.0,38.0,30.9,07.2,0000.0,0003.19,0001.99,0001.66
2022-06-15 19:10:00,,0823.5,5.00,0.00,29.2,27.0,00.0,38.0,30.9,07.3,0000.0,0003.07,0001.94,0001.65
2022-06-15 19:11:00,,0823.5,5.02,0.00,29.2,27.1,00.0,38.0,30.9,07.3,0000.0,0003.01,0001.91,0001.64
2022-06-15 19:12:00,,0823.4,4.99,0.00,29.1,27.3,00.0,38.0,31.0,07.4,0000.0,0002.98,0001.90,0001.63
2022-06-15 19:13:00,,0823.5,5.01,0.00,29.1,27.4,00.0,38.0,31.0,07.3,0000.0,0003.02,0001.90,0001.61
2022-06-15 19:14:00,,0823.5,5.01,0.00,29.1,27.6,00.0,38.0,31.0,07.4,0000.0,0003.10,0001.89,0001.60
2022-06-15 19:15:00,,0823.6,4.99,0.00,29.2,27.7,00.0,38.0,31.1,07.4,0000.0,0003.82,0001.93,0001.59
2022-06-15 19:16:00,,0823.6,5.00,0.00,29.2,27.9,00.0,38.0,31.1,07.5,0000.0,0003.98,0002.00,0001.60
2022-06-15 19:17:00,,0823.6,5.00,0.00,29.2,28.0,00.0,38.0,31.2,07.3,0000.0,0004.21,0002.08,0001.62
2022-06-15 19:18:00,,0823.7,5.00,0.00,29.2,28.2,00.0,38.1,31.2,07.4,0000.0,0004.00,0002.06,0001.63
2022-06-15 19:19:00,,0823.6,5.00,0.00,29.3,28.3,00.0,38.1,31.3,07.4,0000.0,0003.82,0001.99,0001.63
2022-06-15 19:20:00,,0823.7,5.00,0.00,29.3,28.4,00.0,38.1,31.3,07.4,0000.0,0004.04,0002.01,0001.63
2022-06-15 19:21:00,,0823.6,5.00,0.00,29.3,28.5,00.0,38.1,31.4,07.4,0000.0,0004.27,0002.07,0001.64
2022-06-15 19:22:00,,0823.7,4.99,0.00,29.4,28.6,00.0,38.1,31.4,07.4,0000.0,0004.39,0002.11,0001.64
2022-06-15 19:23:00,,0823.7,5.01,0.00,29.4,28.5,00.0,38.1,31.4,07.4,0000.0,0004.38,0002.12,0001.65
2022-06-15 19:24:00,,0823.7,5.00,0.00,29.4,27.8,00.0,38.1,31.1,07.4,0000.0,0004.85,0002.14,0001.64
2022-06-15 19:25:00,,0823.7,5.00,0.00,29.3,27.2,00.0,38.0,31.0,07.4,0000.0,0005.57,0002.13,0001.64
2022-06-15 19:26:00,,0823.7,4.99,0.00,29.2,27.1,00.0,38.0,31.0,07.5,0000.0,0004.77,0002.08,0001.63
2022-06-15 19:27:00,,0823.7,5.00,0.00,29.2,27.2,00.0,38.0,31.0,07.3,0000.0,0004.58,0002.04,0001.62
2022-06-15 19:28:00,,0823.6,4.99,0.00,29.2,27.3,00.0,38.0,31.0,07.2,0000.0,0004.50,0001.99,0001.61
2022-06-15 19:29:00,,0823.5,4.99,0.00,29.2,27.5,00.0,38.0,31.0,07.2,0000.0,0004.62,0001.99,0001.60
2022-06-15 19:30:00,,0823.6,4.99,0.00,29.2,27.6,00.0,38.0,31.1,07.2,0000.0,0004.75,0002.00,0001.59
2022-06-15 19:31:00,,0823.6,5.00,0.00,29.2,27.8,00.0,38.0,31.1,06.9,0000.0,0004.48,0001.98,0001.57
2022-06-15 19:32:00,,0823.6,5.01,0.00,29.2,28.0,00.0,38.0,31.1,07.0,0000.0,0004.31,0001.93,0001.57
2022-06-15 19:33:00,,0823.7,5.00,0.00,29.2,28.1,00.0,38.0,31.2,06.5,0000.0,0004.36,0001.95,0001.57
2022-06-15 19:34:00,,0823.5,5.00,0.00,29.3,28.2,00.0,38.1,31.2,06.0,0000.0,0004.68,0001.99,0001.56
2022-06-15 19:35:00,,0823.3,5.00,0.00,29.3,28.3,00.0,38.1,31.3,06.1,0000.0,0004.27,0001.97,0001.55
2022-06-15 19:36:00,,0823.3,4.99,0.00,29.3,28.4,00.0,38.1,31.3,06.6,0000.0,0003.53,0001.99,0001.55
2022-06-15 19:37:00,,0823.3,5.00,0.00,29.4,28.5,00.0,38.1,31.3,06.7,0000.0,0003.99,0002.02,0001.54
2022-06-15 19:38:00,,0823.5,5.01,0.00,29.4,28.0,00.0,38.1,31.2,06.3,0000.0,0004.71,0001.99,0001.53
2022-06-15 19:39:00,,0823.6,5.00,0.00,29.3,27.3,00.0,38.0,31.0,06.1,0000.0,0004.86,0002.02,0001.51
2022-06-15 19:40:00,,0823.5,4.99,0.00,29.2,27.1,00.0,38.0,30.9,06.7,0000.0,0004.71,0002.01,0001.51
2022-06-15 19:41:00,,0823.5,4.99,0.00,29.2,27.1,00.0,38.0,30.9,06.9,0000.0,0004.59,0002.01,0001.51
2022-06-15 19:42:00,,0823.5,5.01,0.00,29.1,27.2,00.0,38.0,30.9,07.1,0000.0,0004.62,0002.02,0001.51
2022-06-15 19:43:00,,0823.6,5.00,0.00,29.1,27.4,00.0,38.0,31.0,06.9,0000.0,0004.63,0002.01,0001.50
2022-06-15 19:44:00,,0823.4,4.99,0.00,29.1,27.6,00.0,38.0,31.0,06.8,0000.0,0004.41,0001.94,0001.48
2022-06-15 19:45:00,,0823.4,5.00,0.00,29.1,27.7,00.0,38.0,31.1,06.4,0000.0,0004.16,0001.92,0001.49
2022-06-15 19:46:00,,0823.5,4.99,0.00,29.2,27.9,00.0,38.0,31.1,06.2,0000.0,0004.05,0001.88,0001.48
2022-06-15 19:47:00,,0823.4,5.04,0.00,29.2,28.0,00.0,38.0,31.2,06.1,0000.0,0003.96,0001.85,0001.48
2022-06-15 19:48:00,,0823.4,5.00,0.00,29.2,28.2,00.0,38.0,31.2,06.6,0000.0,0003.95,0001.85,0001.48
2022-06-15 19:49:00,,0823.4,5.00,0.00,29.3,28.3,00.0,38.0,31.3,06.7,0000.0,0002.91,0001.88,0001.50
2022-06-15 19:50:00,,0823.4,5.00,0.00,29.3,28.4,00.0,38.1,31.3,06.7,0000.0,0002.77,0001.85,0001.50
2022-06-15 19:51:00,,0823.4,5.00,0.00,29.3,28.4,00.0,38.1,31.3,06.3,0000.0,0002.68,0001.81,0001.50
2022-06-15 19:52:00,,0823.4,4.99,0.00,29.3,27.9,00.0,38.0,31.2,06.3,0000.0,0002.65,0001.81,0001.50
2022-06-15 19:53:00,,0823.5,5.01,0.00,29.2,27.2,00.0,38.0,30.9,06.5,0000.0,0002.52,0001.77,0001.49
2022-06-15 19:54:00,,0823.5,5.00,0.00,29.2,27.0,00.0,37.9,30.8,06.7,0000.0,0002.52,0001.77,0001.50
2022-06-15 19:55:00,,0823.4,4.99,0.00,29.1,27.1,00.0,37.9,30.9,06.5,0000.0,0002.69,0001.83,0001.50
2022-06-15 19:56:00,,0823.4,5.00,0.00,29.1,27.2,00.0,37.9,30.9,06.6,0000.0,0002.62,0001.81,0001.49
2022-06-15 19:57:00,,0823.6,5.01,0.00,29.1,27.4,00.0,37.9,30.9,06.7,0000.0,0002.75,0001.86,0001.50
2022-06-15 19:58:00,,0823.6,4.99,0.00,29.1,27.5,00.0,37.9,31.0,06.8,0000.0,0002.86,0001.90,0001.52
2022-06-15 19:59:00,,0823.5,5.00,0.00,29.1,27.7,00.0,37.9,31.0,06.5,0000.0,0002.80,0001.87,0001.52
